EW5962 Weather Reports


time (UTC)temp
C
wind
direction
speed
KPH
gust
KPH
rain 1hr
cm
rain 24hr
cm
rain mn
cm
humidity
%
barometer
mb
20260905094035 21 226 0.0 0.0 0.00 0.00 0.00 94 1010.3
20260905093537 21 226 0.0 0.0 0.00 0.00 0.00 94 1010.3
20260905093038 21 226 0.0 0.0 0.00 0.00 0.00 93 1010.3
20260905092538 21 226 0.0 0.0 0.00 0.00 0.00 93 1010.4
20260905092034 21 226 0.0 0.0 0.00 0.00 0.00 93 1010.3
20260905091537 21 226 0.0 0.0 0.00 0.00 0.00 93 1010.3
20260905091034 21 226 0.0 0.0 0.00 0.00 0.00 93 1010.3
20260905090533 21 226 0.0 0.0 0.00 0.00 0.00 93 1010.3
20260905090044 21 226 0.0 0.0 0.00 0.00 0.00 93 1010.3
20260905085533 21 226 0.0 0.0 0.00 0.00 0.00 93 1010.3
20260905085032 21 226 0.0 0.0 0.00 0.00 0.00 93 1010.3
20260905084531 21 226 0.0 0.0 0.00 0.00 0.00 92 1010.4
20260905084035 21 226 0.0 0.0 0.00 0.00 0.00 92 1010.4
20260905083530 21 226 0.0 0.0 0.00 0.00 0.00 92 1010.3
20260905083034 21 226 0.0 0.0 0.00 0.00 0.00 92 1010.2
20260905082529 21 226 0.0 0.0 0.00 0.00 0.00 92 1010.3
20260905082030 21 226 0.0 0.0 0.00 0.00 0.00 92 1010.4
20260905081526 21 226 0.0 0.0 0.00 0.00 0.00 92 1010.5
20260905081027 21 226 0.0 0.0 0.00 0.00 0.00 92 1010.5
20260905080526 21 226 0.0 0.0 0.00 0.00 0.00 92 1010.6
20260905080028 21 226 0.0 0.0 0.00 0.00 0.00 92 1010.6
20260905075526 21 226 0.0 0.0 0.00 0.00 0.00 92 1010.7
20260905075026 21 226 0.0 0.0 0.00 0.00 0.00 92 1010.7
20260905074525 21 226 0.0 0.0 0.00 0.00 0.00 92 1010.7
20260905074025 21 226 0.0 0.0 0.00 0.00 0.00 92 1010.7
20260905073524 21 226 0.0 0.0 0.00 0.00 0.00 92 1010.7
20260905073026 21 226 0.0 0.0 0.00 0.00 0.00 92 1010.7
20260905072525 21 226 0.0 0.0 0.00 0.00 0.00 92 1010.7
20260905072023 21 226 0.0 0.0 0.00 0.00 0.00 92 1011.0
20260905071526 21 226 0.0 0.0 0.00 0.00 0.00 91 1011.2
20260905071020 21 296 0.0 0.0 0.00 0.00 0.00 91 1011.5
20260905070519 21 298 0.0 0.0 0.00 0.00 0.00 91 1011.4
20260905070020 21 297 0.0 0.0 0.00 0.00 0.00 91 1011.5
20260905065518 22 297 0.0 0.0 0.00 0.00 0.00 91 1011.3
20260905065021 22 297 0.0 0.0 0.00 0.00 0.00 91 1011.4
20260905064518 22 297 0.0 0.0 0.00 0.00 0.00 90 1011.6
20260905064019 22 297 0.0 0.0 0.00 0.00 0.00 90 1011.5
20260905063520 22 297 0.0 0.0 0.00 0.00 0.00 90 1011.7
20260905063016 22 297 0.0 0.0 0.00 0.00 0.00 90 1011.9
20260905062514 22 297 0.0 0.0 0.00 0.00 0.00 90 1012.0
20260905062014 22 297 0.0 0.0 0.00 0.00 0.00 90 1011.9
20260905061516 22 297 0.0 0.0 0.00 0.00 0.00 90 1012.1
20260905061012 22 297 0.0 0.0 0.00 0.00 0.00 90 1012.2
20260905060511 22 297 0.0 0.0 0.00 0.00 0.00 89 1012.2
20260905060012 22 297 0.0 0.0 0.00 0.00 0.00 89 1012.4
20260905055511 22 301 0.0 0.0 0.00 0.00 0.00 89 1012.6
20260905055012 22 298 0.0 0.0 0.00 0.00 0.00 89 1012.7
20260905054505 22 297 0.0 0.0 0.00 0.00 0.00 89 1012.6
20260905054007 22 297 0.0 0.0 0.00 0.00 0.00 89 1012.6
20260905053504 22 297 0.0 0.0 0.00 0.00 0.00 89 1012.5
20260905053003 22 297 0.0 0.0 0.00 0.00 0.00 88 1012.6
20260905052603 22 296 0.0 0.0 0.00 0.00 0.00 88 1012.4
20260905052003 22 298 0.0 0.0 0.00 0.00 0.00 88 1012.6
20260905051606 22 298 0.0 0.0 0.00 0.00 0.00 88 1012.6
20260905051004 22 298 0.0 0.0 0.00 0.00 0.00 88 1012.7
20260905050603 22 298 0.0 0.0 0.00 0.00 0.00 88 1012.7
20260905050004 22 298 0.0 0.0 0.00 0.00 0.00 88 1012.7
20260905045604 22 298 0.0 0.0 0.00 0.00 0.00 88 1012.9
20260905045004 22 295 0.0 0.0 0.00 0.00 0.00 88 1013.0
20260905044604 22 295 0.0 0.0 0.00 0.00 0.00 88 1013.0
20260905044003 22 295 0.0 0.0 0.00 0.00 0.00 88 1013.0
20260905043603 22 295 0.0 0.0 0.00 0.00 0.00 88 1013.0
20260905043004 22 293 0.0 0.0 0.00 0.00 0.00 87 1013.0
20260905042604 22 293 0.0 0.0 0.00 0.00 0.00 87 1013.0
20260905042003 22 293 0.0 0.0 0.00 0.00 0.00 87 1012.9
20260905041603 22 293 0.0 0.0 0.00 0.00 0.00 87 1012.9
20260905041003 22 293 0.0 0.0 0.00 0.00 0.00 87 1012.9
20260905040604 22 293 0.0 0.0 0.00 0.00 0.00 87 1012.8
20260905040007 22 293 0.0 0.0 0.00 0.00 0.00 87 1012.9
20260905035602 22 293 0.0 0.0 0.00 0.00 0.00 87 1012.8
20260905035003 22 293 0.0 0.0 0.00 0.00 0.00 86 1012.8
20260905034604 22 293 0.0 0.0 0.00 0.00 0.00 86 1012.7
20260905034003 22 293 0.0 0.0 0.00 0.00 0.00 86 1012.6
20260905033603 22 293 0.0 0.0 0.00 0.00 0.00 86 1012.5
20260905033003 22 292 0.0 0.0 0.00 0.00 0.00 86 1012.4
20260905032604 22 292 0.0 0.0 0.00 0.00 0.00 85 1012.4
20260905032003 23 292 0.0 0.0 0.00 0.00 0.00 85 1012.2
20260905031617 23 292 0.0 0.0 0.00 0.00 0.00 85 1012.3
20260905031003 23 292 0.0 0.0 0.00 0.00 0.00 85 1012.2
20260905030603 23 292 0.0 0.0 0.00 0.00 0.00 84 1012.3
20260905030004 23 292 0.0 0.0 0.00 0.00 0.00 84 1012.3
20260905025602 23 292 0.0 0.0 0.00 0.00 0.00 84 1012.2
20260905025004 23 292 0.0 0.0 0.00 0.00 0.00 83 1012.2
20260905024604 23 292 0.0 0.0 0.00 0.00 0.00 83 1012.3
20260905024003 23 292 0.0 0.0 0.00 0.00 0.00 83 1012.5
20260905023604 23 292 0.0 0.0 0.00 0.00 0.00 83 1012.5
20260905023003 23 292 0.0 0.0 0.00 0.00 0.00 82 1012.4
20260905022603 23 292 0.0 0.0 0.00 0.00 0.00 82 1012.4
20260905022006 23 292 0.0 0.0 0.00 0.00 0.00 82 1012.3
20260905021604 23 292 0.0 0.0 0.00 0.00 0.00 81 1012.4
20260905021104 23 292 0.0 0.0 0.00 0.00 0.00 81 1012.3
20260905020503 24 292 0.0 0.0 0.00 0.00 0.00 80 1012.2
20260905020012 24 292 0.0 0.0 0.00 0.00 0.00 80 1012.2
20260905015603 24 292 0.0 0.0 0.00 0.00 0.00 79 1012.1
20260905015103 24 292 0.0 0.0 0.00 0.00 0.00 79 1012.1
20260905014604 24 292 0.0 0.0 0.00 0.00 0.00 78 1012.1
20260905014103 25 292 0.0 0.0 0.00 0.00 0.00 77 1011.8
20260905013503 25 292 0.0 0.0 0.00 0.00 0.00 77 1011.8
20260905013006 25 292 0.0 0.0 0.00 0.00 0.00 76 1011.8
20260905012510 25 292 0.0 0.0 0.00 0.00 0.00 75 1011.8
20260905012105 25 292 0.0 0.0 0.00 0.00 0.00 74 1011.8
20260905011510 25 292 0.0 0.0 0.00 0.00 0.00 74 1011.9
20260905011011 25 292 0.0 0.0 0.00 0.00 0.00 73 1011.8
20260905010605 25 292 0.0 0.0 0.00 0.00 0.00 73 1011.8
20260905010005 26 292 0.0 0.0 0.00 0.00 0.00 72 1011.8
20260905005509 26 292 0.0 0.0 0.00 0.00 0.00 70 1011.7
20260905005104 26 292 0.0 0.0 0.00 0.00 0.00 70 1011.9
20260905004502 26 292 0.0 0.0 0.00 0.00 0.00 69 1011.9
20260905004012 26 292 0.0 0.0 0.00 0.00 0.00 69 1012.0
20260905003603 26 292 0.0 0.0 0.00 0.00 0.00 68 1012.0
20260905003004 27 295 0.0 0.0 0.00 0.00 0.00 67 1012.0
20260905002509 27 295 0.0 0.0 0.00 0.00 0.00 66 1012.2
20260905002103 27 295 0.0 0.0 0.00 0.00 0.00 65 1012.3
20260905001509 27 295 0.0 0.0 0.00 0.00 0.00 64 1012.3
20260905001009 27 295 0.0 0.0 0.00 0.00 0.00 63 1012.6
20260905000603 28 295 0.0 0.0 0.00 0.00 0.00 62 1012.7
20260905000009 28 294 0.0 0.0 0.00 0.00 0.00 61 1012.8
20260904235604 28 45 0.0 0.0 0.00 0.00 0.00 61 1012.9
20260904235003 28 39 0.0 0.0 0.00 0.00 0.00 60 1012.9
20260904234510 28 34 0.0 0.0 0.00 0.00 0.00 60 1012.8
20260904234103 28 145 0.0 0.0 0.00 0.00 0.00 59 1012.8
20260904233503 29 145 0.0 1.6 0.00 0.00 0.00 59 1012.6
20260904233009 29 151 0.0 1.6 0.00 0.00 0.00 59 1012.4
20260904232603 30 152 0.0 0.0 0.00 0.00 0.00 59 1012.3
20260904232003 30 153 0.0 0.0 0.00 0.00 0.00 59 1012.0
20260904231513 30 113 0.0 8.0 0.00 0.00 0.00 61 1012.0
20260904231103 30 28 0.0 8.0 0.00 0.00 0.00 59 1012.0
20260904230504 31 29 0.0 8.0 0.00 0.00 0.00 61 1011.9
20260904230023 31 68 0.0 8.0 0.00 0.00 0.00 63 1012.0
20260904225603 31 65 0.0 1.6 0.00 0.00 0.00 71 1012.0
20260904225002 31 193 0.0 0.0 0.00 0.00 0.00 70 1011.9
20260904224509 31 193 0.0 0.0 0.00 0.00 0.00 70 1011.7
20260904224105 31 193 0.0 0.0 0.00 0.00 0.00 69 1011.6
20260904223504 32 193 0.0 0.0 0.00 0.00 0.00 68 1011.7
20260904223010 32 193 0.0 0.0 0.00 0.00 0.00 67 1011.6
20260904222604 32 193 0.0 0.0 0.00 0.00 0.00 67 1011.6
20260904222003 32 193 0.0 0.0 0.00 0.00 0.00 65 1011.4
20260904221509 32 193 0.0 0.0 0.00 0.00 0.00 64 1011.5
20260904221103 32 193 0.0 0.0 0.00 0.00 0.00 63 1011.5
20260904220504 33 193 0.0 1.6 0.00 0.00 0.00 63 1011.3
20260904220010 33 193 0.0 1.6 0.00 0.00 0.00 62 1011.1
20260904215604 33 188 0.0 0.0 0.00 0.00 0.00 62 1010.9
20260904215002 33 183 0.0 1.6 0.00 0.00 0.00 60 1010.9
20260904214509 33 171 0.0 0.0 0.00 0.00 0.00 60 1010.9
20260904214103 34 173 0.0 1.6 0.00 0.00 0.00 57 1010.9
20260904213507 35 172 0.0 1.6 0.00 0.00 0.00 55 1010.9
20260904213009 35 134 0.0 0.0 0.00 0.00 0.00 54 1011.0
20260904212605 35 179 0.0 4.8 0.00 0.00 0.00 52 1011.2
20260904212005 36 181 0.0 1.6 0.00 0.00 0.00 51 1011.3
20260904211513 36 168 0.0 4.8 0.00 0.00 0.00 48 1011.3
20260904211014 36 191 0.0 9.7 0.00 0.00 0.00 47 1011.3
20260904210513 36 132 0.0 3.2 0.00 0.00 0.00 46 1011.4
20260904210026 37 193 0.0 9.7 0.00 0.00 0.00 49 1011.2
20260904205504 37 177 0.0 9.7 0.00 0.00 0.00 45 1011.2
20260904205007 37 178 0.0 6.4 0.00 0.00 0.00 48 1011.1
20260904204517 37 160 0.0 6.4 0.00 0.00 0.00 46 1010.9
20260904204014 37 169 0.0 6.4 0.00 0.00 0.00 45 1011.0
20260904203518 37 174 0.0 9.7 0.00 0.00 0.00 45 1011.0
20260904203104 37 157 1.6 9.7 0.00 0.00 0.00 44 1011.0
20260904202503 37 179 0.0 1.6 0.00 0.00 0.00 45 1011.0
20260904202006 37 176 0.0 6.4 0.00 0.00 0.00 46 1010.9
20260904201510 37 171 0.0 11.3 0.00 0.00 0.00 45 1011.0
20260904201015 37 198 0.0 11.3 0.00 0.00 0.00 45 1011.2
20260904200514 37 165 0.0 9.7 0.00 0.00 0.00 45 1011.2
20260904200039 37 229 0.0 1.6 0.00 0.00 0.00 44 1011.2
20260904195606 37 229 0.0 8.0 0.00 0.00 0.00 43 1011.3
20260904195106 37 164 1.6 12.9 0.00 0.00 0.00 44 1011.4
20260904194617 37 240 1.6 12.9 0.00 0.00 0.00 44 1011.4
20260904194010 37 195 0.0 4.8 0.00 0.00 0.00 44 1011.7
20260904193511 37 198 0.0 6.4 0.00 0.00 0.00 47 1011.8
20260904193017 36 228 0.0 6.4 0.00 0.00 0.00 50 1011.9
20260904192519 36 185 0.0 6.4 0.00 0.00 0.00 48 1012.0
20260904192016 36 219 0.0 6.4 0.00 0.00 0.00 49 1012.1
20260904191603 36 183 0.0 8.0 0.00 0.00 0.00 47 1012.2
20260904191103 36 168 3.2 9.7 0.00 0.00 0.00 47 1012.3
20260904190503 36 276 1.6 9.7 0.00 0.00 0.00 48 1012.3
20260904190010 36 183 0.0 8.0 0.00 0.00 0.00 49 1012.6
20260904185511 36 179 0.0 8.0 0.00 0.00 0.00 50 1012.6
20260904185023 36 174 0.0 4.8 0.00 0.00 0.00 48 1012.7
20260904184503 36 198 0.0 0.0 0.00 0.00 0.00 48 1012.7
20260904184011 36 188 0.0 0.0 0.00 0.00 0.00 47 1012.8
20260904183516 36 217 0.0 0.0 0.00 0.00 0.00 47 1012.9
20260904183023 36 188 0.0 0.0 0.00 0.00 0.00 50 1013.0
20260904182503 36 239 0.0 1.6 0.00 0.00 0.00 50 1013.1
20260904182011 36 179 0.0 1.6 0.00 0.00 0.00 52 1013.0
20260904181520 36 202 0.0 3.2 0.00 0.00 0.00 52 1013.0
20260904181023 36 158 0.0 3.2 0.00 0.00 0.00 52 1013.1
20260904180505 35 340 0.0 1.6 0.00 0.00 0.00 52 1013.2
20260904180019 35 344 0.0 1.6 0.00 0.00 0.00 52 1013.3
20260904175524 34 350 0.0 1.6 0.00 0.00 0.00 52 1013.3
20260904175003 34 216 0.0 1.6 0.00 0.00 0.00 52 1013.4
20260904174510 35 192 0.0 1.6 0.00 0.00 0.00 52 1013.4
20260904174011 35 219 0.0 0.0 0.00 0.00 0.00 51 1013.4
20260904173514 36 288 0.0 0.0 0.00 0.00 0.00 52 1013.5
20260904173021 36 295 0.0 0.0 0.00 0.00 0.00 52 1013.6
20260904172504 36 49 0.0 6.4 0.00 0.00 0.00 52 1013.6
20260904172013 36 202 0.0 0.0 0.00 0.00 0.00 51 1013.7
20260904171522 36 28 0.0 0.0 0.00 0.00 0.00 51 1013.6
20260904171002 36 25 0.0 1.6 0.00 0.00 0.00 53 1013.7
20260904170513 35 295 0.0 1.6 0.00 0.00 0.00 53 1013.7
20260904170002 35 207 0.0 6.4 0.00 0.00 0.00 55 1013.8
20260904165509 35 308 0.0 6.4 0.00 0.00 0.00 55 1013.9
20260904165103 35 25 0.0 1.6 0.00 0.00 0.00 56 1013.9
20260904164503 34 152 0.0 1.6 0.00 0.00 0.00 58 1014.0
20260904164015 34 176 0.0 9.7 0.00 0.00 0.00 60 1014.1
20260904163516 33 191 1.6 9.7 0.00 0.00 0.00 59 1014.2
20260904163016 33 233 0.0 1.6 0.00 0.00 0.00 60 1014.3
20260904162518 33 150 0.0 11.3 0.00 0.00 0.00 60 1014.3
20260904162008 33 186 1.6 11.3 0.00 0.00 0.00 60 1014.4
20260904161610 33 192 0.0 1.6 0.00 0.00 0.00 61 1014.5
20260904161003 33 162 0.0 8.0 0.00 0.00 0.00 61 1014.5
20260904160511 33 158 0.0 8.0 0.00 0.00 0.00 62 1014.5
20260904160115 33 205 0.0 4.8 0.00 0.00 0.00 65 1014.6
20260904155504 32 201 0.0 3.2 0.00 0.00 0.00 65 1014.7
20260904155008 32 172 0.0 3.2 0.00 0.00 0.00 64 1014.6
20260904154604 32 170 0.0 4.8 0.00 0.00 0.00 65 1014.7
20260904154003 32 153 0.0 4.8 0.00 0.00 0.00 65 1014.7
20260904153510 32 188 0.0 1.6 0.00 0.00 0.00 67 1014.7
20260904153130 32 161 0.0 1.6 0.00 0.00 0.00 69 1014.7
20260904152503 31 60 0.0 0.0 0.00 0.00 0.00 68 1014.6
20260904152009 31 348 0.0 0.0 0.00 0.00 0.00 72 1014.7
20260904151609 31 176 0.0 0.0 0.00 0.00 0.00 70 1014.7
20260904151003 30 155 0.0 1.6 0.00 0.00 0.00 72 1014.6
20260904150510 30 181 0.0 1.6 0.00 0.00 0.00 72 1014.7
20260904150105 30 181 0.0 1.6 0.00 0.00 0.00 75 1014.6
20260904145504 29 200 0.0 1.6 0.00 0.00 0.00 74 1014.7
20260904145008 29 213 0.0 3.2 0.00 0.00 0.00 75 1014.6
20260904144505 28 183 0.0 1.6 0.00 0.00 0.00 75 1014.8
20260904144010 28 206 0.0 0.0 0.00 0.00 0.00 78 1014.9
20260904143515 28 171 0.0 0.0 0.00 0.00 0.00 79 1015.0
20260904143019 28 152 0.0 0.0 0.00 0.00 0.00 80 1015.1
20260904142604 27 122 0.0 0.0 0.00 0.00 0.00 80 1015.1
20260904142004 27 169 0.0 1.6 0.00 0.00 0.00 81 1015.0
20260904141510 27 160 0.0 0.0 0.00 0.00 0.00 82 1015.0
20260904141103 27 160 0.0 1.6 0.00 0.00 0.00 83 1015.0
20260904140503 27 180 0.0 1.6 0.00 0.00 0.00 83 1015.0
20260904140009 26 36 0.0 0.0 0.00 0.00 0.00 83 1015.0
20260904135605 26 167 0.0 0.0 0.00 0.00 0.00 84 1015.0
20260904135003 26 220 0.0 1.6 0.00 0.00 0.00 86 1015.0
20260904134509 26 176 0.0 0.0 0.00 0.00 0.00 87 1014.9
20260904134102 25 2 0.0 0.0 0.00 0.00 0.00 87 1014.9
20260904133502 25 155 0.0 0.0 0.00 0.00 0.00 91 1014.9
20260904133010 25 155 0.0 1.6 0.00 0.00 0.00 89 1015.0
20260904132604 25 169 0.0 1.6 0.00 0.00 0.00 91 1015.0
20260904132003 24 155 0.0 1.6 0.00 0.00 0.00 92 1015.0
20260904131509 24 193 0.0 0.0 0.00 0.00 0.00 94 1015.1
20260904131102 23 349 0.0 0.0 0.00 0.00 0.00 95 1015.1
20260904130502 23 172 0.0 0.0 0.00 0.00 0.00 95 1015.1
20260904130015 23 175 0.0 0.0 0.00 0.00 0.00 95 1015.0
20260904125603 23 35 0.0 0.0 0.00 0.00 0.00 96 1015.1
20260904125005 23 187 0.0 0.0 0.00 0.00 0.00 96 1015.1
20260904124509 22 183 0.0 0.0 0.00 0.00 0.00 97 1015.1
20260904124102 22 165 0.0 0.0 0.00 0.00 0.00 96 1015.0
20260904123603 22 188 0.0 0.0 0.00 0.00 0.00 96 1015.0
20260904123006 22 188 0.0 0.0 0.00 0.00 0.00 96 1015.0
20260904122514 22 182 0.0 0.0 0.00 0.00 0.00 96 1015.1
20260904122018 22 183 0.0 0.0 0.00 0.00 0.00 97 1015.1
20260904121603 22 183 0.0 0.0 0.00 0.00 0.00 96 1015.1
20260904121003 22 183 0.0 0.0 0.00 0.00 0.00 96 1015.1
20260904120603 22 183 0.0 0.0 0.00 0.00 0.00 96 1015.0
20260904120002 22 183 0.0 0.0 0.00 0.00 0.00 96 1015.0
20260904115509 22 183 0.0 0.0 0.00 0.00 0.00 96 1014.9
20260904115103 22 183 0.0 0.0 0.00 0.00 0.00 96 1014.8
20260904114504 22 183 0.0 0.0 0.00 0.00 0.00 96 1014.8
20260904114009 22 183 0.0 0.0 0.00 0.00 0.00 96 1014.8
20260904113604 22 183 0.0 0.0 0.00 0.00 0.00 96 1014.8
20260904113002 22 183 0.0 0.0 0.00 0.00 0.00 96 1014.8
20260904112509 22 183 0.0 0.0 0.00 0.00 0.00 95 1014.7
20260904112103 22 183 0.0 0.0 0.00 0.00 0.00 95 1014.7
20260904111505 22 183 0.0 0.0 0.00 0.00 0.00 95 1014.8
20260904111009 22 183 0.0 0.0 0.00 0.00 0.00 95 1014.7
20260904110603 22 183 0.0 0.0 0.00 0.00 0.00 95 1014.8
20260904110003 22 183 0.0 0.0 0.00 0.00 0.00 95 1014.8
20260904105509 22 183 0.0 0.0 0.00 0.00 0.00 95 1014.8
20260904105103 22 183 0.0 0.0 0.00 0.00 0.00 95 1014.7
20260904104503 22 183 0.0 0.0 0.00 0.00 0.00 95 1014.6
20260904104009 22 183 0.0 0.0 0.00 0.00 0.00 95 1014.5
20260904103602 22 183 0.0 0.0 0.00 0.00 0.00 95 1014.5
20260904103002 22 183 0.0 0.0 0.00 0.00 0.00 95 1014.5
20260904102511 22 183 0.0 0.0 0.00 0.00 0.00 95 1014.5
20260904102102 22 183 0.0 0.0 0.00 0.00 0.00 95 1014.5
20260904101505 22 183 0.0 0.0 0.00 0.00 0.00 95 1014.5
20260904101008 22 183 0.0 0.0 0.00 0.00 0.00 94 1014.5
20260904100603 22 183 0.0 0.0 0.00 0.00 0.00 94 1014.5
20260904100003 22 183 0.0 0.0 0.00 0.00 0.00 94 1014.4
20260904095509 22 183 0.0 0.0 0.00 0.00 0.00 94 1014.4
20260904095107 22 183 0.0 0.0 0.00 0.00 0.00 94 1014.4
20260904094506 22 183 0.0 0.0 0.00 0.00 0.00 94 1014.4